Location: Ferchesar
(52.6477°N, 12.4298°E)
Time: 09:23:53
(UTC+01:00)

Vanguard 1 - Pass Details

Date: 08 December 2021
Orbit: 652 x 3830 km, 34.2° (Epoch: 16 January)

Event Time Altitude Azimuth Distance (km) Brightness Sun altitude
Exits shadow 01:09:15 27° 124° (SE) 5,215 13.5 -57.4°
Drops below altitude 10° 01:16:11 10° 111° (ESE) 6,103 14.1 -56.9°
Sets 01:20:29 0° 105° (ESE) 6,786 14.5 -56.5°
